Date,TemperatureHighF,TemperatureAvgF,TemperatureLowF,DewpointHighF,DewpointAvgF,DewpointLowF,HumidityHigh,HumidityAvg,HumidityLow,PressureMaxIn,PressureMinIn,WindSpeedMaxMPH,WindSpeedAvgMPH,GustSpeedMaxMPH,PrecipitationSumIn
2013-1-1,47.5,45.1,41.9,47.0,40.0,30.0,97,83,54,30.03,29.87,3,0,6,0.31
2013-1-2,51.7,47.7,43.5,47.0,43.5,40.0,98,86,70,30.06,29.82,5,1,9,0.04
2013-1-3,43.7,40.2,29.6,40.0,35.8,25.0,95,84,60,30.20,30.02,7,1,14,0.00
2013-1-4,50.7,36.5,24.6,31.0,23.3,19.0,91,63,33,30.27,30.16,8,2,12,0.00
2013-1-5,47.8,37.6,24.0,32.0,23.9,20.0,84,60,36,30.32,30.16,8,1,12,0.00
2013-1-6,55.8,44.3,39.0,42.0,35.9,29.0,89,74,56,30.16,29.95,7,2,11,0.00
2013-1-7,52.1,40.4,28.8,31.0,28.3,25.0,86,64,40,30.34,30.12,7,2,16,0.00
2013-1-8,50.9,39.9,27.1,42.0,34.1,25.0,94,81,61,30.39,30.29,5,1,6,0.00
2013-1-9,58.0,51.1,43.9,53.0,47.4,41.0,95,87,74,30.36,30.29,3,1,6,0.00
2013-1-10,65.9,55.7,46.3,53.0,48.2,39.0,98,78,52,30.41,30.27,9,2,12,0.00
2013-1-11,54.9,49.5,48.6,50.0,48.3,44.0,98,95,68,30.28,30.06,6,1,7,0.33
2013-1-12,69.8,58.7,49.9,65.0,57.2,49.0,99,94,81,30.08,29.99,4,1,6,0.01
2013-1-13,69.2,60.7,54.3,62.0,58.1,54.0,98,91,76,30.02,29.93,13,3,18,0.00
2013-1-14,64.7,62.2,57.1,64.0,61.4,55.0,98,97,93,30.01,29.93,8,2,11,0.46
2013-1-15,56.7,49.1,43.4,56.0,48.2,43.0,98,96,94,30.06,29.97,4,1,10,0.59
2013-1-16,50.1,46.6,43.1,49.0,46.0,42.0,98,98,97,29.97,29.88,4,1,6,0.30
2013-1-17,52.7,46.6,36.5,53.0,45.3,35.0,99,95,89,30.11,29.69,17,3,31,1.55
2013-1-18,51.9,39.9,29.8,35.0,27.1,22.0,88,63,31,30.43,30.11,6,2,15,0.44
2013-1-19,53.7,37.5,25.9,32.0,27.3,24.0,92,70,36,30.41,30.10,8,2,11,0.00
2013-1-20,63.7,44.5,29.6,36.0,29.0,25.0,90,60,25,30.10,29.95,12,2,18,0.00
2013-1-21,58.8,42.4,27.9,34.0,24.8,14.0,92,56,26,30.00,29.85,16,5,27,0.00
2013-1-22,39.6,33.3,25.4,14.0,6.8,-4.0,60,34,16,30.18,29.94,13,4,20,0.00
2013-1-23,46.4,33.3,22.9,25.0,16.0,7.0,76,51,34,30.27,29.99,11,3,15,0.00
2013-1-24,44.6,37.4,24.9,30.0,15.7,3.0,79,45,19,30.42,29.90,17,4,18,0.00
2013-1-25,27.3,25.0,20.6,26.0,16.0,6.0,94,70,44,30.43,30.05,8,2,9,0.00
2013-1-26,47.9,33.8,23.6,37.0,28.6,22.0,96,83,43,30.29,30.04,4,1,5,0.01
2013-1-27,43.4,36.6,29.8,32.0,27.4,23.0,88,70,54,30.48,30.29,5,2,9,0.00
2013-1-28,57.3,43.1,35.9,48.0,37.3,30.0,94,80,69,30.39,30.17,12,2,13,0.00
2013-1-29,70.2,54.7,37.9,59.0,49.9,37.0,98,85,63,30.17,29.91,11,2,20,0.00
2013-1-30,67.9,62.6,48.7,62.0,59.4,46.0,97,89,81,29.92,29.33,17,6,22,1.58
2013-1-31,48.2,39.8,29.3,46.0,25.5,19.0,90,59,37,29.94,29.43,20,8,26,0.10
2013-2-1,40.8,33.8,22.9,29.0,14.4,7.0,75,47,29,30.29,29.83,16,4,26,0.00
2013-2-2,44.0,32.2,20.7,34.0,19.9,11.0,88,64,32,30.32,29.97,15,4,19,0.00
2013-2-3,50.3,39.4,28.5,34.0,26.7,22.0,93,63,34,29.97,29.80,21,5,30,0.00
2013-2-4,50.6,38.2,25.8,29.0,23.4,19.0,80,57,35,30.05,29.91,9,2,11,0.00
2013-2-5,63.3,45.7,32.6,39.0,32.2,28.0,87,63,33,29.91,29.80,14,2,17,0.00
2013-2-6,63.9,47.5,33.1,38.0,28.8,18.0,89,55,17,30.13,29.90,7,2,11,0.00
2013-2-7,48.1,43.6,40.9,41.0,34.1,24.0,95,72,40,30.18,29.92,7,2,10,0.48
2013-2-8,58.1,46.1,37.3,48.0,37.4,27.0,97,74,38,30.04,29.80,11,4,21,0.01
2013-2-9,60.0,44.9,30.5,28.0,22.5,16.0,76,45,21,30.25,30.01,7,2,13,0.00
2013-2-10,54.7,44.3,35.0,42.0,29.9,23.0,95,60,30,30.34,30.09,7,2,12,0.13
2013-2-11,58.0,50.5,43.0,56.0,49.3,42.0,98,96,91,30.09,29.88,8,1,13,0.13
2013-2-12,57.5,49.0,40.4,45.0,34.0,25.0,97,60,29,30.01,29.82,7,2,10,0.00
2013-2-13,48.7,43.8,41.2,45.0,41.0,31.0,96,90,68,29.85,29.57,7,2,12,0.06
2013-2-14,52.4,40.9,28.7,35.0,30.8,26.0,89,69,46,29.98,29.80,11,2,14,0.00
2013-2-15,60.5,44.4,28.4,38.0,31.7,27.0,96,66,34,30.02,29.84,14,3,18,0.00
2013-2-16,43.2,36.6,29.4,31.0,24.0,14.0,89,61,46,29.94,29.76,14,4,20,0.00
2013-2-17,41.3,30.2,18.3,16.0,10.6,6.0,73,46,25,30.19,29.95,11,3,17,0.00
2013-2-18,54.3,37.2,20.8,26.0,20.3,14.0,80,54,32,30.31,30.13,10,2,15,0.00
2013-2-19,52.8,42.8,36.1,44.0,30.5,13.0,95,66,24,30.13,29.78,19,4,24,0.10
2013-2-20,54.8,40.0,23.4,24.0,12.6,1.0,80,39,14,30.03,29.94,7,2,11,0.00
2013-2-21,57.6,41.5,24.5,38.0,18.0,1.0,90,43,18,30.16,30.00,6,2,8,0.10
2013-2-22,40.0,38.5,37.1,38.0,36.7,35.0,96,93,84,30.21,30.03,5,1,9,0.31
2013-2-23,44.9,40.7,36.7,43.0,39.4,36.0,97,95,91,30.06,29.77,4,1,6,0.22
2013-2-24,63.6,49.0,34.8,44.0,33.9,22.0,98,63,21,29.93,29.77,8,2,14,0.00
2013-2-25,46.1,40.8,34.0,29.0,26.7,23.0,76,58,49,30.09,29.91,10,3,16,0.00
2013-2-26,39.5,36.5,32.8,39.0,34.6,26.0,98,93,62,30.00,29.53,7,2,13,1.49
2013-2-27,55.9,44.5,31.5,39.0,36.7,31.0,98,77,52,29.73,29.58,11,3,18,0.01
2013-2-28,46.7,39.9,29.4,34.0,27.8,24.0,87,64,46,29.82,29.64,15,4,22,0.00
2013-3-1,45.3,38.0,26.3,31.0,27.8,24.0,91,68,53,29.86,29.79,7,2,12,0.00
2013-3-2,44.5,38.3,32.3,34.0,28.7,21.0,92,70,52,29.86,29.75,11,3,21,0.00
2013-3-3,42.6,34.0,28.5,22.0,17.4,14.0,65,52,39,29.95,29.84,13,4,17,0.00
2013-3-4,56.2,38.5,20.6,26.0,17.0,12.0,80,46,18,30.08,29.93,9,2,15,0.00
2013-3-5,47.9,42.7,36.6,44.0,37.1,25.0,95,81,57,29.99,29.56,6,2,12,0.47
2013-3-6,44.7,38.0,32.5,38.0,25.1,21.0,90,61,45,30.05,29.57,23,6,30,0.00
2013-3-7,54.1,39.4,24.9,30.0,25.5,22.0,90,61,34,30.19,30.05,11,3,16,0.00
2013-3-8,56.5,41.2,24.4,27.0,23.2,19.0,86,54,23,30.24,30.14,9,3,17,0.00
2013-3-9,62.5,45.2,26.9,36.0,28.6,23.0,85,56,28,30.28,30.15,9,2,11,0.00
2013-3-10,65.3,52.2,36.6,37.0,34.4,31.0,83,54,32,30.21,30.07,7,2,12,0.00
2013-3-11,65.5,54.8,45.9,53.0,44.2,33.0,97,69,42,30.09,29.75,9,2,16,0.50
2013-3-12,62.9,55.3,46.6,55.0,44.1,25.0,98,70,34,29.90,29.64,13,3,13,0.52
2013-3-13,52.1,42.8,31.4,31.0,24.6,18.0,82,51,27,30.08,29.90,17,4,24,0.00
2013-3-14,51.5,39.3,31.2,20.0,16.1,11.0,53,41,24,30.22,30.08,16,6,23,0.00
2013-3-15,68.3,46.2,27.0,41.0,30.0,20.0,79,56,33,30.12,29.82,14,3,17,0.00
2013-3-16,78.3,62.1,45.1,49.0,44.8,40.0,84,57,33,29.83,29.61,15,4,22,0.00
2013-3-17,76.2,58.0,45.6,53.0,46.0,40.0,85,67,36,29.98,29.74,10,3,16,0.00
2013-3-18,45.2,40.7,39.0,40.0,38.4,37.0,96,91,81,30.03,29.79,7,2,10,0.38
2013-3-19,62.0,48.6,36.2,42.0,29.2,12.0,98,57,20,29.98,29.78,16,4,25,0.00
2013-3-20,56.3,47.4,40.8,26.0,14.4,8.0,50,27,18,30.02,29.72,11,4,18,0.00
2013-3-21,43.7,36.3,29.0,29.0,13.6,7.0,68,40,29,29.89,29.71,15,4,23,0.00
2013-3-22,51.9,37.6,23.6,29.0,18.3,12.0,75,48,29,30.01,29.89,9,2,14,0.00
2013-3-23,58.6,45.3,35.8,42.0,35.8,26.0,90,71,52,29.97,29.80,7,2,10,0.00
2013-3-24,43.8,41.9,38.8,42.0,39.8,37.0,94,92,86,29.84,29.47,10,2,19,0.70
2013-3-25,44.0,39.2,35.1,37.0,27.6,19.0,96,67,40,29.83,29.48,22,7,33,0.06
2013-3-26,46.6,38.2,26.7,27.0,23.9,22.0,85,58,40,30.12,29.82,12,4,22,0.00
2013-3-27,49.8,40.6,29.0,27.0,22.9,21.0,75,50,37,30.18,30.11,13,4,16,0.00
2013-3-28,56.2,44.3,29.0,25.0,22.7,21.0,75,45,27,30.23,30.11,11,3,15,0.00
2013-3-29,61.1,45.2,26.9,38.0,28.0,23.0,86,55,24,30.26,30.12,12,2,15,0.00
2013-3-30,63.4,52.5,43.7,46.0,42.6,38.0,96,72,46,30.14,29.95,8,2,11,0.36
2013-3-31,69.0,55.2,48.6,57.0,50.7,42.0,97,86,58,29.95,29.71,13,2,20,0.19
2013-4-1,68.6,57.6,43.1,54.0,42.9,34.0,97,63,34,29.87,29.74,23,4,28,0.01
2013-4-2,63.7,51.2,34.8,33.0,25.7,16.0,88,43,17,30.06,29.88,13,3,21,0.00
2013-4-3,59.7,51.3,40.7,31.0,23.2,18.0,50,34,26,30.18,30.03,5,2,11,0.00
2013-4-4,49.1,41.6,36.8,37.0,30.1,16.0,95,68,28,30.18,29.91,11,2,15,0.94
2013-4-5,65.3,48.9,36.1,45.0,38.5,35.0,97,72,34,29.98,29.84,9,2,14,0.01
2013-4-6,68.8,52.7,36.1,41.0,35.7,32.0,92,58,28,30.13,29.98,8,2,12,0.00
2013-4-7,70.2,59.0,40.1,47.0,43.5,36.0,87,59,40,30.14,30.00,13,4,21,0.00
2013-4-8,76.5,62.4,48.8,58.0,50.9,44.0,94,69,42,30.06,29.94,12,3,23,0.00
2013-4-9,81.8,67.8,52.0,57.0,53.9,49.0,91,64,41,30.09,29.98,14,3,16,0.00
2013-4-10,83.9,69.2,54.1,60.0,56.4,52.0,93,67,39,29.99,29.84,11,2,16,0.00
2013-4-11,78.9,68.7,58.5,66.0,59.6,55.0,91,74,52,29.85,29.61,12,3,20,0.00
2013-4-12,80.0,69.2,59.2,66.0,53.6,37.0,95,64,28,29.71,29.52,21,5,32,0.69
2013-4-13,76.5,62.4,42.2,45.0,37.3,30.0,87,44,19,29.92,29.71,9,3,15,0.00
2013-4-14,73.0,60.9,43.3,52.0,43.2,34.0,83,55,32,29.99,29.86,10,2,12,0.00
2013-4-15,63.6,58.3,54.3,58.0,55.4,51.0,95,90,77,30.11,29.88,5,1,8,0.07
2013-4-16,77.8,65.5,57.2,61.0,57.9,56.0,96,79,52,30.19,30.07,7,1,11,0.00
2013-4-17,75.0,64.8,57.9,65.0,60.1,56.0,94,85,62,30.14,30.02,8,2,12,0.00
2013-4-18,78.8,67.2,57.3,64.0,60.1,56.0,98,79,53,30.05,29.85,12,2,14,0.00
2013-4-19,69.0,64.0,52.1,66.0,61.0,41.0,95,90,67,29.85,29.61,11,4,17,0.55
2013-4-20,63.9,52.4,39.1,39.0,32.6,27.0,84,49,32,30.18,29.81,11,3,18,0.00
2013-4-21,61.4,51.7,39.5,43.0,36.0,29.0,81,57,38,30.35,30.18,11,3,19,0.00
2013-4-22,62.5,51.9,41.6,40.0,36.7,32.0,84,58,36,30.33,30.13,10,3,14,0.00
2013-4-23,71.0,55.6,38.5,51.0,42.7,31.0,88,64,41,30.19,30.00,7,2,12,0.00
2013-4-24,72.6,60.0,47.3,58.0,53.1,46.0,96,79,56,30.04,29.89,15,4,22,0.00
2013-4-25,72.3,60.0,48.2,57.0,39.6,26.0,95,51,20,30.19,29.95,8,2,11,0.00
2013-4-26,68.7,57.1,38.5,46.0,36.4,27.0,86,49,29,30.34,30.19,9,2,13,0.00
2013-4-27,61.9,55.9,53.3,55.0,49.8,41.0,96,81,52,30.27,30.15,5,1,7,0.36
2013-4-28,54.8,53.3,51.5,54.0,52.2,50.0,97,96,95,30.16,29.94,5,1,10,1.94
2013-4-29,71.2,60.6,53.7,61.0,56.8,53.0,98,88,66,29.98,29.84,6,2,10,0.08
2013-4-30,72.6,63.5,56.0,62.0,58.4,55.0,98,84,62,30.07,29.88,7,2,12,0.00
2013-5-1,65.7,60.1,53.7,57.0,54.7,52.0,95,83,70,30.19,30.07,12,2,14,0.00
2013-5-2,63.0,58.3,54.6,58.0,55.1,53.0,96,89,81,30.20,30.13,8,3,17,0.13
2013-5-3,63.9,59.1,55.2,55.0,52.6,49.0,93,79,68,30.14,30.00,10,4,18,0.00
2013-5-4,59.0,54.3,50.1,50.0,47.0,43.0,92,77,67,30.01,29.89,14,5,19,0.00
2013-5-5,57.7,51.1,48.2,56.0,49.4,46.0,96,94,91,29.95,29.75,12,6,23,2.54
2013-5-6,66.6,58.7,49.3,58.0,52.3,45.0,97,81,46,29.80,29.73,7,2,15,1.41
2013-5-7,69.0,54.9,43.5,54.0,49.0,43.0,97,82,46,29.86,29.76,6,2,12,0.00
2013-5-8,72.8,61.2,49.4,57.0,54.2,48.0,98,80,55,29.92,29.82,9,2,14,0.00
2013-5-9,80.5,64.8,49.9,59.0,54.8,49.0,97,74,42,29.98,29.90,8,2,11,0.00
2013-5-10,79.9,67.1,53.5,64.0,58.8,52.0,97,77,49,29.98,29.84,16,3,20,0.00
2013-5-11,76.0,67.0,58.3,67.0,61.2,57.0,97,83,61,29.86,29.68,7,2,16,0.09
2013-5-12,70.2,61.5,51.0,60.0,44.8,32.0,97,58,31,29.95,29.75,12,4,18,0.00
2013-5-13,67.4,55.3,41.3,40.0,34.4,30.0,81,48,26,30.10,29.95,11,2,22,0.00
2013-5-14,72.2,56.7,38.6,50.0,42.0,35.0,90,61,38,30.17,29.98,10,3,18,0.00
2013-5-15,87.0,68.7,50.2,65.0,57.4,48.0,95,71,43,29.98,29.83,10,2,17,0.00
2013-5-16,81.6,69.1,55.7,63.0,59.0,54.0,95,73,40,29.92,29.84,7,2,12,0.00
2013-5-17,82.9,70.3,56.0,67.0,60.7,55.0,98,74,48,29.98,29.89,5,1,11,0.00
2013-5-18,70.4,66.1,60.9,67.0,63.6,59.0,95,91,86,30.03,29.94,5,1,8,0.25
2013-5-19,74.1,68.7,65.3,69.0,66.4,65.0,97,92,80,30.00,29.90,5,2,10,0.12
2013-5-20,81.4,71.4,66.0,70.0,67.0,65.0,98,86,63,30.02,29.89,6,1,8,0.00
2013-5-21,85.5,73.5,61.6,71.0,66.8,61.0,98,81,55,29.93,29.81,7,2,13,0.00
2013-5-22,83.1,70.1,63.1,71.0,65.5,62.0,97,86,65,29.89,29.74,10,2,21,0.73
2013-5-23,78.3,68.3,62.9,69.0,64.2,58.0,98,87,65,29.84,29.72,9,2,13,0.03
2013-5-24,69.9,64.1,51.2,60.0,47.1,37.0,94,56,33,30.11,29.78,15,5,24,0.01
2013-5-25,77.4,61.8,44.2,46.0,41.0,31.0,86,50,19,30.21,30.06,9,2,13,0.00
2013-5-26,73.8,63.3,55.8,56.0,49.0,40.0,88,61,44,30.19,30.06,12,2,12,0.00
2013-5-27,80.1,66.7,51.0,62.0,55.6,49.0,95,70,47,30.17,30.03,11,2,17,0.00
2013-5-28,81.6,70.5,60.3,66.0,62.0,58.0,93,76,51,30.12,30.03,7,2,13,0.00
2013-5-29,82.0,71.1,58.5,66.0,62.5,57.0,96,76,51,30.12,30.04,8,2,11,0.00
2013-5-30,82.0,70.9,60.5,67.0,63.0,59.0,96,78,54,30.16,30.06,8,2,10,0.00
2013-5-31,83.3,72.9,63.9,67.0,64.0,61.0,93,76,50,30.12,29.99,9,2,13,0.00
2013-6-1,82.5,74.5,66.6,67.0,65.6,64.0,92,75,54,30.01,29.89,13,3,14,0.00
2013-6-2,76.6,70.8,66.5,71.0,67.2,64.0,98,88,80,29.93,29.79,10,2,18,1.39
2013-6-3,83.4,72.5,65.2,71.0,67.8,65.0,98,86,61,29.84,29.73,7,2,9,0.00
2013-6-4,79.8,72.8,65.1,68.0,65.9,63.0,97,80,60,29.96,29.84,10,2,12,0.07
2013-6-5,77.3,71.0,66.6,70.0,66.6,64.0,96,86,76,29.99,29.86,7,2,14,0.53
2013-6-6,75.5,70.4,67.0,71.0,68.6,66.0,98,94,84,29.87,29.68,10,2,11,1.38
2013-6-7,82.5,70.3,65.4,72.0,67.7,64.0,98,92,67,29.72,29.56,5,1,12,0.83
2013-6-8,82.2,72.4,63.9,71.0,66.7,62.0,98,83,63,29.97,29.72,7,2,9,0.02
2013-6-9,83.2,71.5,65.3,73.0,68.0,65.0,98,89,68,30.03,29.92,7,1,15,1.16
2013-6-10,77.3,71.2,67.2,71.0,68.8,65.0,98,92,74,29.96,29.79,10,3,14,0.67
2013-6-11,85.9,75.1,65.6,70.0,66.5,62.0,97,77,48,29.89,29.82,6,2,8,0.00
2013-6-12,89.2,75.7,61.8,78.0,69.9,61.0,97,83,65,29.90,29.78,9,1,11,0.00
2013-6-13,91.4,77.4,66.5,72.0,69.0,64.0,98,77,53,29.79,29.56,12,2,22,0.00
2013-6-14,81.1,72.6,59.1,65.0,56.9,53.0,89,59,39,29.92,29.68,14,4,19,0.00
2013-6-15,82.9,70.5,55.4,65.0,59.8,54.0,94,71,49,30.03,29.93,8,2,11,0.00
2013-6-16,84.3,73.5,62.3,68.0,64.4,60.0,93,75,51,30.03,29.90,10,2,12,0.00
2013-6-17,82.4,73.9,69.2,73.0,69.5,66.0,96,86,71,29.93,29.83,5,1,9,0.11
2013-6-18,79.3,71.8,67.7,73.0,69.5,66.0,97,92,77,29.84,29.67,8,2,12,0.24
2013-6-19,79.7,72.2,62.7,68.0,64.8,62.0,97,79,56,30.01,29.80,6,2,10,0.00
2013-6-20,81.2,72.7,65.5,69.0,65.9,63.0,93,80,63,30.11,30.00,7,2,10,0.00
2013-6-21,83.1,73.1,64.2,66.0,64.0,61.0,93,75,52,30.16,30.05,6,2,9,0.00
2013-6-22,83.9,72.4,61.5,69.0,63.7,57.0,91,75,54,30.12,30.00,5,2,9,0.00
2013-6-23,85.7,73.6,64.3,72.0,67.9,63.0,97,83,57,30.09,30.00,11,2,11,1.31
2013-6-24,85.7,73.9,67.0,73.0,69.8,67.0,98,87,63,30.10,29.98,10,2,21,1.79
2013-6-25,86.8,74.1,66.7,74.0,69.3,66.0,99,86,58,30.04,29.90,5,1,10,0.00
2013-6-26,86.6,73.4,67.5,75.0,70.3,66.0,98,90,63,29.93,29.80,9,1,27,0.14
2013-6-27,87.8,75.6,67.9,76.0,71.2,67.0,98,87,66,29.83,29.62,8,2,13,0.03
2013-6-28,90.6,77.0,66.0,74.0,69.8,65.0,98,81,47,29.67,29.48,7,2,16,0.16
2013-6-29,85.4,75.2,63.6,74.0,68.8,63.0,98,82,54,29.59,29.51,9,2,12,0.00
2013-6-30,83.6,73.8,67.5,73.0,69.0,66.0,97,86,64,29.72,29.58,7,1,11,0.06
2013-7-1,79.8,72.9,68.0,73.0,69.5,67.0,97,89,74,29.85,29.70,6,2,11,0.89
2013-7-2,76.8,71.8,68.5,73.0,69.9,68.0,98,93,84,30.02,29.85,7,2,14,1.46
2013-7-3,80.0,72.5,66.4,73.0,70.1,66.0,98,92,78,30.10,30.00,9,2,14,0.22
2013-7-4,80.7,71.9,66.5,76.0,69.9,66.0,98,93,77,30.13,30.03,7,2,11,0.96
2013-7-5,82.9,72.6,69.0,75.0,70.5,68.0,99,93,70,30.13,30.07,13,1,18,0.48
2013-7-6,83.3,74.7,70.0,74.0,71.3,69.0,98,90,70,30.11,29.98,8,2,11,0.24
2013-7-7,82.5,75.9,72.1,75.0,72.8,71.0,98,90,73,30.06,29.95,8,2,13,0.19
2013-7-8,85.5,76.2,69.3,75.0,71.4,69.0,98,86,66,30.07,29.98,6,1,10,0.02
2013-7-9,88.9,76.2,67.4,76.0,71.2,67.0,99,86,50,30.05,29.93,5,1,8,0.14
2013-7-10,82.7,74.6,69.7,76.0,71.9,69.0,98,92,76,30.01,29.84,8,2,10,0.09
2013-7-11,79.7,73.6,68.8,74.0,71.7,68.0,99,94,82,29.86,29.76,3,1,5,0.07
2013-7-12,81.6,74.2,68.5,74.0,70.7,67.0,97,89,73,29.90,29.77,8,1,11,0.00
2013-7-13,78.1,71.7,66.5,72.0,68.4,65.0,97,89,78,30.01,29.90,6,2,14,0.19
2013-7-14,81.6,74.3,71.1,74.0,71.2,69.0,97,90,74,30.17,29.99,10,3,19,0.16
2013-7-15,86.1,75.9,69.1,73.0,70.4,68.0,98,84,60,30.22,30.14,6,2,11,0.08
2013-7-16,90.9,78.6,66.9,76.0,71.0,66.0,98,80,54,30.20,30.10,5,1,9,0.03
2013-7-17,90.4,75.9,68.5,77.0,71.2,66.0,97,86,64,30.14,30.04,12,1,19,0.39
2013-7-18,87.7,76.3,67.6,76.0,71.3,67.0,98,85,65,30.06,29.96,8,1,13,0.00
2013-7-19,88.0,78.1,68.8,76.0,72.5,68.0,99,84,61,30.01,29.87,8,2,12,0.00
2013-7-20,84.5,74.8,69.2,77.0,72.3,69.0,98,92,76,29.92,29.83,15,2,20,0.50
2013-7-21,84.0,73.2,68.4,77.0,71.4,68.0,99,94,70,29.90,29.82,6,1,13,0.23
2013-7-22,83.6,75.4,69.6,75.0,72.0,69.0,99,89,73,29.90,29.72,7,2,14,0.04
2013-7-23,88.0,76.3,66.9,75.0,70.6,66.0,99,84,53,29.77,29.66,6,1,9,0.00
2013-7-24,88.3,75.7,67.5,75.0,69.7,64.0,97,83,59,29.75,29.65,11,1,17,0.42
2013-7-25,83.5,74.0,66.7,72.0,68.8,66.0,96,84,63,29.92,29.73,5,1,10,0.00
2013-7-26,83.2,74.9,68.4,73.0,69.9,67.0,97,85,64,29.99,29.89,7,2,10,0.00
2013-7-27,78.4,72.8,68.8,73.0,70.4,68.0,98,92,76,29.91,29.79,6,1,14,1.49
2013-7-28,82.8,73.4,69.0,73.0,70.0,68.0,99,89,68,29.89,29.80,6,1,9,0.21
2013-7-29,84.6,71.9,62.0,70.0,65.3,61.0,97,82,50,30.06,29.90,5,1,7,0.00
2013-7-30,82.6,73.5,65.9,72.0,66.6,60.0,91,79,62,30.12,30.02,5,1,9,0.00
2013-7-31,77.7,72.6,69.0,73.0,69.9,67.0,96,91,83,30.05,29.87,5,1,7,0.02
2013-8-1,83.2,74.9,70.4,76.0,71.5,70.0,97,89,70,29.88,29.77,5,1,7,0.06
2013-8-2,85.3,75.7,66.5,74.0,69.4,65.0,98,82,60,29.92,29.80,5,1,8,0.00
2013-8-3,86.3,76.2,68.5,76.0,70.5,67.0,99,84,56,29.91,29.83,6,1,9,0.00
2013-8-4,85.5,76.0,66.0,71.0,66.6,60.0,97,75,45,29.92,29.83,16,2,16,0.00
2013-8-5,83.0,74.6,66.9,72.0,66.7,62.0,93,77,66,29.97,29.86,6,1,15,0.26
2013-8-6,77.8,71.6,68.7,73.0,69.5,67.0,97,93,83,29.95,29.86,8,1,8,0.14
2013-8-7,79.0,73.3,69.9,74.0,71.3,69.0,98,93,80,29.98,29.90,6,1,9,0.04
2013-8-8,83.8,75.9,70.4,75.0,72.4,70.0,98,89,74,29.95,29.88,8,2,13,0.00
2013-8-9,88.0,76.8,71.1,78.0,73.4,70.0,98,89,69,29.96,29.89,5,1,12,0.00
2013-8-10,88.1,75.9,69.9,78.0,73.1,69.0,99,91,64,30.01,29.94,12,1,14,0.09
2013-8-11,87.7,75.0,68.4,76.0,71.7,68.0,99,90,63,30.02,29.94,7,1,9,0.01
2013-8-12,88.4,76.7,68.2,77.0,72.3,68.0,99,87,62,29.96,29.85,5,1,8,0.00
2013-8-13,85.8,75.4,68.5,75.0,71.1,68.0,99,87,67,29.85,29.70,7,2,11,0.00
2013-8-14,79.5,73.1,66.8,69.0,66.0,64.0,91,78,63,29.96,29.76,7,1,8,0.00
2013-8-15,70.2,65.4,60.0,64.0,59.9,57.0,94,83,68,30.06,29.96,6,1,11,0.00
2013-8-16,73.1,65.5,58.9,64.0,60.1,57.0,94,83,68,30.07,29.99,7,1,10,0.00
2013-8-17,67.9,64.2,61.3,64.0,61.4,59.0,97,90,80,30.10,30.04,5,1,6,0.11
2013-8-18,76.9,68.7,63.6,70.0,66.4,63.0,98,92,78,30.12,30.03,5,1,7,0.06
2013-8-19,75.6,69.4,66.5,70.0,67.5,66.0,98,93,79,30.09,29.99,4,1,5,0.47
2013-8-20,80.1,71.2,64.1,73.0,68.3,64.0,99,91,75,30.09,30.01,3,1,7,0.00
2013-8-21,78.7,72.6,67.9,74.0,70.8,67.0,99,94,81,30.13,30.00,3,1,7,0.13
2013-8-22,87.2,75.0,67.8,74.0,70.2,67.0,99,86,58,30.05,29.91,4,1,7,0.01
2013-8-23,86.3,72.0,64.1,72.0,68.3,64.0,99,89,57,29.96,29.87,9,1,14,0.08
2013-8-24,79.5,70.4,60.9,68.0,62.2,58.0,98,77,51,30.20,29.97,7,2,13,0.00
2013-8-25,78.6,68.6,59.3,65.0,60.8,57.0,95,78,55,30.28,30.18,4,2,9,0.00
2013-8-26,82.1,69.6,56.9,69.0,62.9,56.0,97,81,60,30.23,30.02,6,2,9,0.00
2013-8-27,88.1,73.0,60.0,75.0,67.0,60.0,99,83,55,30.05,29.89,8,1,8,0.00
2013-8-28,87.7,76.6,66.1,75.0,70.3,65.0,97,82,58,29.92,29.82,4,1,9,0.00
2013-8-29,92.4,80.1,67.9,76.0,71.1,67.0,97,76,50,29.87,29.77,8,2,15,0.03
2013-8-30,83.5,75.4,71.3,74.0,71.0,69.0,96,86,68,29.94,29.82,6,1,7,0.02
2013-8-31,87.3,73.9,67.6,75.0,70.3,67.0,98,89,60,29.86,29.77,6,1,10,0.01
2013-9-1,87.1,72.4,67.1,77.0,70.1,67.0,99,93,66,29.81,29.69,14,2,24,0.61
2013-9-2,87.5,74.5,64.8,76.0,70.3,65.0,99,88,60,29.81,29.70,6,1,9,0.01
2013-9-3,86.5,75.1,66.7,71.0,67.7,65.0,99,80,52,29.86,29.71,7,2,14,0.00
2013-9-4,84.7,72.8,61.9,71.0,65.9,61.0,97,81,58,30.00,29.86,5,1,8,0.00
2013-9-5,86.6,74.0,63.3,72.0,65.8,60.0,97,77,49,30.01,29.94,5,1,8,0.00
2013-9-6,82.2,71.3,60.1,67.0,62.7,59.0,96,75,55,30.09,29.97,7,2,12,0.00
2013-9-7,82.3,70.7,61.1,70.0,64.1,60.0,96,81,60,30.03,29.88,7,2,10,0.00
2013-9-8,84.3,72.9,60.9,71.0,66.4,60.0,98,82,55,29.89,29.83,8,1,10,0.00
2013-9-9,85.9,75.0,65.0,72.0,68.4,64.0,97,81,59,30.03,29.89,7,1,10,0.00
2013-9-10,87.6,74.6,64.1,72.0,67.9,63.0,98,81,53,30.13,30.03,7,1,9,0.00
2013-9-11,86.5,74.6,63.8,75.0,69.2,63.0,99,85,58,30.11,29.98,5,1,10,0.00
2013-9-12,86.9,73.4,66.1,73.0,68.7,66.0,99,86,58,29.98,29.75,7,1,12,0.00
2013-9-13,81.8,72.1,63.9,68.0,61.1,51.0,96,70,49,29.80,29.69,8,2,10,0.00
2013-9-14,75.0,63.7,52.3,61.0,54.3,50.0,92,73,52,30.02,29.81,8,2,11,0.00
2013-9-15,77.4,66.3,57.5,66.0,60.1,55.0,95,81,64,30.12,30.02,5,2,9,0.00
2013-9-16,83.2,70.9,59.4,68.0,62.6,58.0,98,77,53,30.05,29.96,5,1,8,0.00
2013-9-17,71.4,66.9,63.1,61.0,57.6,54.0,84,72,64,30.20,30.05,8,2,16,0.00
2013-9-18,70.6,64.5,58.1,62.0,57.6,54.0,90,79,66,30.20,30.07,5,1,9,0.00
2013-9-19,81.4,69.2,60.8,68.0,63.0,59.0,95,82,61,30.09,29.98,7,1,9,0.00
2013-9-20,84.6,71.5,60.9,70.0,64.9,60.0,98,82,54,29.99,29.81,8,2,11,0.00
2013-9-21,70.7,66.5,63.4,70.0,65.4,62.0,98,96,92,29.82,29.60,10,2,19,1.00
2013-9-22,77.0,65.4,55.0,62.0,57.4,51.0,98,78,42,29.81,29.63,5,1,9,0.01
2013-9-23,73.7,63.5,55.2,61.0,57.2,54.0,95,81,61,29.96,29.81,6,2,9,0.00
2013-9-24,75.8,65.9,56.7,64.0,60.4,55.0,96,83,62,29.98,29.83,7,2,9,0.00
2013-9-25,65.4,62.8,59.2,63.0,60.9,58.0,97,93,86,29.84,29.78,4,1,6,0.21
2013-9-26,75.2,63.8,55.1,62.0,57.3,49.0,98,81,40,29.94,29.79,7,1,10,0.00
2013-9-27,75.9,64.4,53.6,59.0,55.9,52.0,93,76,55,30.08,29.95,5,1,10,0.00
2013-9-28,71.1,62.3,53.8,58.0,55.6,52.0,95,80,60,30.16,30.06,7,2,13,0.00
2013-9-29,71.8,62.2,54.3,60.0,55.9,52.0,93,81,60,30.09,29.94,5,1,9,0.00
2013-9-30,75.9,64.6,54.8,63.0,58.0,53.0,95,81,54,30.00,29.90,6,1,8,0.00
2013-10-1,80.2,66.2,53.3,63.0,58.9,53.0,98,80,51,30.05,29.94,7,1,10,0.00
2013-10-2,81.9,66.3,53.7,67.0,59.5,53.0,98,81,48,30.06,29.96,4,1,7,0.00
2013-10-3,81.9,68.2,57.7,66.0,61.5,57.0,99,81,51,30.04,29.96,8,1,12,0.00
2013-10-4,84.8,69.4,57.3,68.0,62.7,57.0,99,82,52,30.05,29.97,5,1,8,0.00
2013-10-5,84.7,70.3,58.3,69.0,63.7,58.0,99,82,51,30.04,29.93,4,1,8,0.00
2013-10-6,81.3,69.0,59.6,67.0,63.4,59.0,98,84,58,29.95,29.78,7,1,13,0.00
2013-10-7,74.3,67.2,56.7,68.0,62.4,52.0,98,85,64,29.90,29.70,8,2,17,0.72
2013-10-8,68.6,59.2,50.4,53.0,50.2,46.0,96,74,56,30.12,29.90,9,2,15,0.00
2013-10-9,72.8,57.7,46.0,51.0,45.6,43.0,92,68,36,30.15,30.02,9,2,16,0.00
2013-10-10,76.5,59.8,42.6,59.0,50.8,42.0,98,75,45,30.05,29.90,7,1,11,0.00
2013-10-11,79.7,66.0,52.2,60.0,55.0,51.0,96,70,42,29.91,29.82,7,2,11,0.00
2013-10-12,73.5,63.6,52.6,64.0,57.9,51.0,96,82,60,29.99,29.87,5,0,6,0.00
2013-10-13,74.0,66.3,62.3,65.0,62.2,61.0,96,87,71,30.11,30.00,7,1,8,0.00
2013-10-14,69.6,64.4,58.5,62.0,60.3,57.0,95,86,76,30.14,30.05,7,2,10,0.00
2013-10-15,70.0,61.1,52.9,61.0,56.8,52.0,97,86,69,30.11,29.96,6,1,8,0.00
2013-10-16,71.5,61.2,50.4,61.0,56.5,49.0,97,85,65,29.98,29.87,5,2,8,0.00
2013-10-17,68.4,63.0,59.2,64.0,61.5,58.0,98,94,83,29.87,29.75,8,1,12,0.03
2013-10-18,68.8,59.7,49.7,62.0,54.8,48.0,97,84,66,29.94,29.80,8,1,8,0.00
2013-10-19,63.3,58.1,49.0,60.0,56.3,48.0,98,94,84,29.88,29.74,5,1,6,0.00
2013-10-20,66.4,52.7,41.1,49.0,45.4,40.0,98,79,45,30.01,29.84,7,1,9,0.00
2013-10-21,67.0,54.3,44.1,54.0,48.4,42.0,95,81,60,30.06,29.91,10,2,11,0.00
2013-10-22,67.3,58.0,52.7,57.0,53.9,51.0,97,87,64,29.93,29.71,5,1,8,0.00
2013-10-23,61.7,50.7,41.8,51.0,39.0,30.0,97,68,38,29.95,29.64,15,3,22,0.00
2013-10-24,57.3,44.3,30.8,42.0,35.2,29.0,94,73,48,30.09,29.95,5,2,12,0.00
2013-10-25,51.6,42.8,32.7,37.0,30.3,26.0,87,63,42,30.30,30.09,10,3,15,0.00
2013-10-26,56.5,40.5,26.2,39.0,31.4,25.0,95,73,42,30.30,30.00,8,1,13,0.00
2013-10-27,68.1,51.6,37.1,50.0,43.7,36.0,96,77,51,30.05,29.96,7,1,13,0.00
2013-10-28,68.6,56.5,46.9,58.0,52.0,46.0,97,86,57,30.16,30.02,4,1,9,0.00
2013-10-29,72.4,58.6,46.0,57.0,52.2,45.0,98,81,51,30.24,30.14,5,1,7,0.00
2013-10-30,77.9,62.3,52.3,59.0,55.2,51.0,96,80,49,30.19,30.05,7,1,11,0.00
2013-10-31,67.2,61.4,53.6,63.0,57.2,53.0,97,86,72,30.08,29.78,7,1,11,0.00
2013-11-1,67.8,64.5,57.6,64.0,60.9,57.0,98,88,78,29.78,29.56,9,3,15,0.21
2013-11-2,67.0,54.6,42.4,56.0,43.4,37.0,97,70,39,29.90,29.62,11,2,19,0.01
2013-11-3,62.5,50.5,39.7,40.0,37.1,35.0,87,62,38,30.28,29.90,8,2,13,0.00
2013-11-4,58.1,47.1,37.6,35.0,33.1,30.0,84,61,37,30.44,30.28,12,2,12,0.00
2013-11-5,59.1,47.3,34.3,49.0,39.4,30.0,95,75,52,30.48,30.34,6,1,9,0.00
2013-11-6,68.0,55.8,48.9,55.0,51.4,47.0,97,86,63,30.34,30.04,4,1,6,0.00
2013-11-7,68.4,54.0,46.4,58.0,45.1,30.0,98,75,44,30.05,29.88,10,2,18,0.00
2013-11-8,58.9,47.5,33.8,31.0,25.7,17.0,76,45,20,30.23,30.05,9,3,18,0.00
2013-11-9,56.9,43.3,29.7,36.0,30.0,26.0,86,63,36,30.30,30.13,9,1,12,0.00
2013-11-10,71.8,52.0,34.7,41.0,34.1,26.0,93,57,22,30.15,30.04,10,2,13,0.00
2013-11-11,61.4,46.9,33.1,31.0,27.5,24.0,79,51,25,30.27,30.05,5,1,8,0.00
2013-11-12,62.6,42.4,30.0,40.0,29.1,13.0,85,62,34,30.39,29.98,15,4,22,0.00
2013-11-13,50.8,34.5,23.4,20.0,16.4,13.0,73,51,23,30.47,30.37,6,2,9,0.00
2013-11-14,58.7,37.3,21.9,27.0,20.8,18.0,87,57,22,30.41,30.25,6,1,9,0.00
2013-11-15,55.9,44.3,29.2,48.0,32.3,22.0,97,66,33,30.27,30.13,3,0,4,0.10
2013-11-16,62.7,54.1,48.2,55.0,51.3,47.0,98,90,74,30.19,30.10,4,1,7,0.00
2013-11-17,61.1,57.9,54.7,59.0,56.1,53.0,98,93,87,30.12,29.79,4,1,6,0.23
2013-11-18,72.1,61.1,52.1,61.0,46.6,32.0,99,65,25,29.89,29.75,13,3,20,0.00
2013-11-19,56.5,48.8,42.8,31.0,26.3,23.0,60,43,28,30.17,29.89,13,3,22,0.00
2013-11-20,52.1,43.2,34.6,33.0,29.5,27.0,77,60,43,30.37,30.18,8,2,11,0.00
2013-11-21,53.2,48.0,43.6,48.0,40.8,31.0,96,77,61,30.40,30.29,5,1,7,0.01
2013-11-22,61.9,55.1,49.1,58.0,53.5,48.0,98,94,87,30.32,30.02,7,1,8,0.03
2013-11-23,57.3,51.8,39.7,56.0,41.1,21.0,99,70,39,30.12,29.98,10,3,19,0.01
2013-11-24,41.5,33.3,25.2,21.0,11.5,7.0,61,42,24,30.44,30.13,10,4,18,0.00
2013-11-25,40.1,31.0,20.4,22.0,13.1,8.0,74,50,30,30.49,30.27,4,1,7,0.00
2013-11-26,45.4,39.0,32.6,45.0,36.1,19.0,98,90,50,30.25,29.55,8,1,11,2.62
2013-11-27,47.4,37.5,29.1,46.0,28.0,15.0,98,70,51,30.13,29.48,16,5,27,0.10
2013-11-28,46.6,31.4,19.2,25.0,20.0,15.0,89,65,37,30.41,30.13,6,1,11,0.00
2013-11-29,54.8,37.9,23.5,29.0,25.1,22.0,92,64,34,30.53,30.40,5,1,12,0.00
2013-11-30,47.5,36.8,28.7,27.0,24.2,22.0,83,62,40,30.57,30.30,6,1,9,0.00
2013-12-1,58.9,38.9,25.2,38.0,29.9,23.0,94,73,44,30.31,29.96,4,1,7,0.00
2013-12-2,58.9,45.1,31.8,43.0,36.7,31.0,97,75,45,29.95,29.74,4,1,8,0.00
2013-12-3,57.7,51.5,45.9,52.0,47.7,41.0,97,87,78,29.87,29.77,5,1,7,0.00
2013-12-4,58.4,55.4,52.3,58.0,54.6,52.0,98,97,91,29.98,29.85,4,1,6,0.00
2013-12-5,66.9,62.6,58.2,66.0,62.2,58.0,99,98,94,30.00,29.88,10,2,15,0.20
2013-12-6,71.7,68.1,62.5,66.0,64.9,61.0,97,89,77,29.93,29.84,21,6,21,0.20
2013-12-7,61.9,54.3,45.1,61.0,49.0,39.0,98,82,73,30.30,29.88,9,2,12,0.02
2013-12-8,44.6,37.6,34.2,39.0,35.6,33.0,96,92,78,30.32,30.20,8,2,13,0.14
2013-12-9,42.7,38.5,34.3,42.0,37.8,33.0,98,97,96,30.20,29.97,4,1,6,0.46
2013-12-10,53.2,43.3,32.2,49.0,36.0,18.0,99,78,47,30.23,29.84,9,2,14,0.11
2013-12-11,51.4,34.9,22.3,31.0,25.4,20.0,92,72,40,30.37,30.23,7,1,9,0.00
2013-12-12,47.6,37.1,26.4,26.0,18.0,8.0,88,49,21,30.33,30.23,8,2,11,0.00
2013-12-13,50.3,35.3,22.6,31.0,22.2,17.0,85,62,31,30.31,30.18,7,2,10,0.00
2013-12-14,43.0,40.2,38.2,40.0,35.5,30.0,96,84,60,30.20,29.72,7,1,10,0.28
2013-12-15,49.4,40.4,28.5,40.0,34.0,25.0,98,80,56,30.04,29.68,10,2,13,0.01
2013-12-16,58.2,39.3,25.6,36.0,30.0,24.0,94,73,38,30.10,30.00,10,2,15,0.48
2013-12-17,62.6,45.6,28.6,37.0,32.0,25.0,94,64,38,30.06,29.83,13,3,20,0.04
2013-12-18,52.5,38.5,26.9,24.0,20.2,12.0,79,52,20,30.21,29.99,7,2,12,0.00
2013-12-19,62.8,43.2,26.3,30.0,24.5,21.0,83,53,23,30.25,30.14,8,2,12,0.00
2013-12-20,61.7,48.8,37.7,47.0,39.0,29.0,89,70,48,30.15,30.03,8,2,16,0.00
2013-12-21,61.4,56.2,49.2,61.0,53.6,46.0,98,91,83,30.07,29.90,4,1,7,0.03
2013-12-22,68.2,63.1,60.2,65.0,62.0,59.0,99,95,87,29.95,29.86,11,3,17,1.41
2013-12-23,60.9,55.0,42.4,61.0,51.1,34.0,99,87,68,30.08,29.88,7,2,10,0.51
2013-12-24,43.7,36.8,26.6,33.0,24.3,16.0,79,61,46,30.37,30.07,13,4,16,0.00
2013-12-25,40.4,28.5,18.6,20.0,15.1,7.0,88,61,31,30.48,30.33,6,1,8,0.00
2013-12-26,53.4,34.6,21.7,30.0,22.9,17.0,83,65,35,30.33,30.19,5,1,7,0.00
2013-12-27,52.2,35.4,24.1,32.0,24.6,22.0,92,69,32,30.41,30.29,4,1,8,0.00
2013-12-28,50.7,37.8,25.0,40.0,30.3,23.0,95,76,45,30.35,30.07,4,1,8,0.15
2013-12-29,60.8,46.5,40.2,50.0,41.8,36.0,98,85,56,30.05,29.70,11,2,20,0.57
2013-12-30,52.8,43.2,33.7,42.0,38.1,32.0,97,83,63,30.04,29.87,4,1,6,0.00
2013-12-31,50.3,40.4,29.4,40.0,24.7,21.0,90,57,33,30.29,30.02,6,1,8,0.00
2014-1-1,47.7,36.2,27.4,31.0,27.1,23.0,88,72,44,30.32,30.08,6,1,13,0.00
2014-1-2,44.3,38.3,29.0,44.0,35.2,17.0,97,89,62,30.07,29.59,13,1,14,0.17